This is the latest recevied weather packets stored in our database for station/object S56VIL-11. If no packets are shown the sender has not sent any weather packets the latest 1 day(s).
| Time | Temp. | Humidity | Pressure | Rain* | Wind** | Luminosity | Snow |
|---|---|---|---|---|---|---|---|
| 1778114498 | 10.56° C | 86% | 1023.9 hPa | - | - | - | - |
| 1778113601 | 10.56° C | 86% | 1024.2 hPa | - | - | - | - |
| 1778112697 | 10.56° C | 86% | 1024.3 hPa | - | - | - | - |
| 1778110897 | 10.56° C | 86% | 1024.1 hPa | - | - | - | - |
| 1778110000 | 10.56° C | 86% | 1024.3 hPa | - | - | - | - |
| 1778109097 | 10.56° C | 86% | 1024.2 hPa | - | - | - | - |
| 1778105496 | 10.56° C | 86% | 1024 hPa | - | - | - | - |
| 1778104602 | 10.56° C | 86% | 1024.1 hPa | - | - | - | - |
| 1778099201 | 11.11° C | 85% | 1024.1 hPa | - | - | - | - |
| 1778095597 | 10.56° C | 86% | 1023.5 hPa | - | - | - | - |
| 1778090196 | 10.56° C | 85% | 1023.3 hPa | - | - | - | - |
| 1778087492 | 11.11° C | 85% | 1022.4 hPa | - | - | - | - |
| 1778085692 | 11.11° C | 85% | 1022.6 hPa | - | - | - | - |
| 1778084795 | 11.11° C | 85% | 1022.7 hPa | - | - | - | - |
| 1778076690 | 10.56° C | 85% | 1023.5 hPa | - | - | - | - |
| 1778075793 | 10.56° C | 85% | 1023.6 hPa | - | - | - | - |
| 1778071290 | 11.67° C | 84% | 1023.7 hPa | - | - | - | - |
| 1778070392 | 11.67° C | 84% | 1023.7 hPa | - | - | - | - |
| 1778066788 | 10.56° C | 84% | 1023.8 hPa | - | - | - | - |
| 1778065888 | 10.56° C | 84% | 1023.8 hPa | - | - | - | - |
| 1778062287 | 11.67° C | 83% | 1024.2 hPa | - | - | - | - |
| 1778061390 | 11.11° C | 83% | 1024.2 hPa | - | - | - | - |
| 1778060486 | 11.11° C | 83% | 1024.2 hPa | - | - | - | - |
| 1778057789 | 11.11° C | 82% | 1024.2 hPa | - | - | - | - |
| 1778056886 | 10.56° C | 83% | 1024.4 hPa | - | - | - | - |
* Rain since midnight (hover to see other rain measurements)
** Current wind speed in m/s (hover to see current wind gust speed)